Погода в Бирюковке

Россия / Астраханская область     46°19′16″N   48°18′54″E
темп.,
°C
ветер,
м/с
пор.,
м/с
влажн.,
%
обл.,
%
осадки,
мм/ч
давл.,
гПа
погр.,
м
7 мая, пт
пт701:00+12юв225711 0.0 101711
04:00+11вюв11555 0.0 101710
07:00+13вюв235385 0.0 101793
10:00+18юв3437100 0.0 10181285
13:00+21ю4428100 0.0 10171976
16:00+22ююз43245 0.0 10171977
19:00+20юз4632100 0.0 1017274
22:00+14ююз49543 0.0 1018222
8 мая, сб
сб801:00+13ююз48610 0.0 1018166
04:00+13юз36669 0.0 1018117
07:00+15юз36645 0.0 1018190
10:00+21юз444518 0.0 1018914
13:00+24юз44340 0.0 10172175
16:00+24ю64351 0.0 10161996
19:00+21ю5738100 0.0 1016542
22:00+15ю3756100 0.0 1016186
9 мая, вс
вс901:00+14ююв3658100 0.0 1015102
04:00+14юв356064 0.0 101498
07:00+16юв3105814 0.0 1013341
10:00+23юв81035100 0.0 10121182
13:00+23ююв91137100 0.0 10111323
16:00+23ююв81148100 0.0 10111250
19:00+20ююв5953100 0.0 1010664
22:00+17ююв2267100 0.0 101140
10 мая, пн
пн1001:00+14зсз91177100 0.1 1011435
04:00+11з91483100 1.8 1012614
07:00+9зсз81483100 0.9 1013672
10:00+9з71184100 2.5 1015877
13:00+11зсз71172100 3.1 10161123
16:00+14зсз61046100 3.4 10161975
19:00+14з47484 0.0 1017395
22:00+11зюз33590 0.0 101823
11 мая, вт
вт1101:00+9ююз33635 0.0 101944
04:00+9з33697 0.0 101933
07:00+10с34680 0.0 1020171
10:00+14ссв2254100 0.1 1021647
13:00+16с3547100 0.3 10201733
16:00+14зсз3556100 0.5 1019550
19:00+16с4744100 0.0 1018279
22:00+12в236497 0.0 101836